Flag for USA

Past Weather in Durango, Colorado, USA — Yesterday and Last 2 Weeks

Now
67 °F

Clear.


Feels Like: 67 °F
Forecast: 79 / 48 °F
Wind: 6 mph from North

Location: Durango-La Plata County Airport
Current Time: Sep 22, 2020 at 9:05:23 pm
Latest Report: Sep 22, 2020 at 7:53 pm
Visibility: 10 mi
Pressure30.08 "Hg(23.84 "Hg at 1989m altitude)
Humidity: 30%
Dew Point: 34 °F
Location of DurangoLocation

Past Weather in Durango — Graph

°F

Durango Temperature Yesterday

Maximum temperature yesterday: 78 °F (at 2:53 pm)
Minimum temperature yesterday: 44 °F (at 3:53 am)
Average temperature yesterday: 63 °F

High & Low Weather Summary for the Past Weeks

 TemperatureHumidityPressure
High81 °F (Sep 16, 1:53 pm)100% (Sep 9, 4:25 am)30.38 "Hg (Sep 9, 4:25 am)
Low34 °F (Sep 11, 5:32 am)10% (Sep 16, 2:53 pm)29.46 "Hg (Sep 8, 10:53 am)
Average57 °F51%30.10 "Hg
* Reported Sep 7 7:53 pm — Sep 22 7:53 pm, Durango. Weather by CustomWeather, © 2020

Note: Actual official high and low records may vary slightly from our data, if they occured in-between our weather recording intervals... More about our weather records

Durango Weather History for the Previous 24 Hours

Scroll right to see more
 ConditionsComfort  
Time TempWeatherWind HumidityBarometerVisibility
7:53 pm
Tue, Sep 22
67 °FClear.6 mph30%30.08 "Hg10 mi
6:53 pm73 °FSunny.14 mph23%30.05 "Hg10 mi
5:53 pm77 °FSunny.16 mph20%30.01 "Hg10 mi
4:53 pm78 °FSunny.13 mph18%30.00 "Hg10 mi
3:53 pm77 °FSunny.5 mph20%30.02 "Hg10 mi
2:53 pm77 °FPassing clouds.9 mph20%30.04 "Hg10 mi
1:53 pm77 °FPassing clouds.6 mph19%30.05 "Hg10 mi
12:53 pm76 °FSunny.6 mph22%30.09 "Hg10 mi
11:53 am69 °FSunny.6 mph30%30.13 "Hg10 mi
10:53 am67 °FOvercast.6 mph31%30.14 "Hg10 mi
9:53 am59 °FBroken clouds.6 mph46%30.16 "Hg10 mi
8:53 am55 °FSunny.No wind47%30.15 "Hg10 mi
7:53 am47 °FSunny.No wind59%30.16 "Hg10 mi
6:53 am43 °FClear.No wind65%30.13 "Hg10 mi
5:53 am46 °FClear.5 mph58%30.10 "Hg10 mi
4:53 am47 °FClear.7 mph59%30.09 "Hg10 mi
3:53 am46 °FClear.3 mph61%30.09 "Hg10 mi
2:53 am46 °FClear.5 mph58%30.08 "Hg10 mi
1:53 am51 °FClear.3 mph54%30.06 "Hg10 mi
12:53 am50 °FClear.5 mph54%30.08 "Hg10 mi
11:53 pm
Mon, Sep 21
55 °FClear.3 mph47%30.06 "Hg10 mi
10:53 pm59 °FClear.3 mph41%30.06 "Hg10 mi
9:53 pm62 °FClear.No wind37%30.06 "Hg10 mi
Weather by CustomWeather, © 2020

See weather overview